Bei Facebook empfehlenBei Twitter postenGoogle plusPinterest

Das Wetter im Erzgebirge am 18.01.2016

Wetter und Klima am 18.01.2016 Holzhau im Erzgebirge (630m ü.NN)
Letzte gemessene Temperatur und Uhrzeit der Messung23:45:00 Uhr-14.60 °C
Temperatur (Maximum / Höchstwert) und Uhrzeit der Messung13:15:00 Uhr-2.10 °C
Temperatur (Minimum / Tiefstwert) und Uhrzeit der Messung23:45:00-14.60 °C
Errechneter Absolutwert der Temperaturschwankungen zwischen Tmin und Tmax des Tages12.50 K
Errechnete Tagesmitteltemperatur-8.82813 °C
Gesamt - Niederschlag des Tages (in flüssiger Form)0.00 Liter / m²
Luftdruck (Maximum / Höchstwert) und Zeitpunkt der Messung02:15:00 Uhr1017.00 hPa
Luftdruck (Minimum / Tiefstwert) und Zeitpunkt der Messung23:45:00 Uhr1012.80 hPa
Errechneter Absolutwert der Luftdruckschwankungen des Tages4.20 hPa
Höchste gemessene Windgeschwindigkeit und Uhrzeit der Messung23:45:00 Uhr0.00 km/h
Errechnete Windhäufigkeit in Relation zu den Messwerten des Tages0.00000 %
Niedrigste Windkühle (Windchill) und Zeitpunkt der Messung23:45:00 Uhr-14.60 °C
Taupunkt (Maximum / Höchstwert) und Uhrzeit der Messung13:15:00 Uhr-3.70 °C
Taupunkt (Minimum / Tiefstwert) und Uhrzeit der Messung23:45:00-16.30 °C
Anzahl der automatisch eingelesenen Messwerte 96

Detaillierte Wetter- und Klima- Messwerte für den 18.01.2016 in Holzhau im Erzgebirge (630m ü.NN)
ZeitTemperaturLuftdruckRel. LuftfeuchteWindWindrichtungWindchillTaupunktNiederschlag l/m²
23:45:00-14.60 °C1012.80 hPa88.00 %-16.30 °C 
23:30:00-14.40 °C1013.10 hPa88.00 %-16.10 °C 
23:15:00-14.20 °C1013.10 hPa88.00 %-15.90 °C 
23:00:00-13.90 °C1013.30 hPa89.00 %-15.50 °C 
22:45:00-13.90 °C1013.20 hPa89.00 %-15.50 °C 
22:30:00-14.20 °C1013.20 hPa89.00 %-15.80 °C 
22:15:00-14.10 °C1013.40 hPa88.00 %-15.80 °C 
22:00:00-14.10 °C1013.40 hPa88.00 %-15.80 °C 
21:45:00-13.90 °C1013.40 hPa88.00 %-15.70 °C 
21:30:00-14.10 °C1013.60 hPa88.00 %-15.80 °C 
21:15:00-13.60 °C1013.50 hPa88.00 %-15.40 °C 
21:00:00-13.40 °C1013.60 hPa88.00 %-15.20 °C 
20:45:00-13.20 °C1013.40 hPa88.00 %-15.00 °C 
20:30:00-13.10 °C1013.50 hPa88.00 %-14.90 °C 
20:15:00-13.10 °C1013.50 hPa88.00 %-14.90 °C 
20:00:00-13.00 °C1013.60 hPa88.00 %-14.80 °C 
19:45:00-12.90 °C1013.60 hPa88.00 %-14.70 °C 
19:30:00-12.60 °C1013.70 hPa88.00 %-14.40 °C 
19:15:00-12.30 °C1013.40 hPa88.00 %-14.10 °C 
19:00:00-12.20 °C1013.40 hPa88.00 %-14.00 °C 
18:45:00-11.90 °C1013.30 hPa88.00 %-13.70 °C 
18:30:00-11.60 °C1013.10 hPa88.00 %-13.40 °C 
18:15:00-11.10 °C1013.00 hPa88.00 %-12.90 °C 
18:00:00-10.80 °C1013.10 hPa88.00 %-12.60 °C 
17:45:00-10.90 °C1013.00 hPa88.00 %-12.70 °C 
17:30:00-11.30 °C1013.20 hPa88.00 %-13.10 °C 
17:15:00-11.60 °C1013.20 hPa87.00 %-13.50 °C 
17:00:00-11.60 °C1013.30 hPa87.00 %-13.50 °C 
16:45:00-11.60 °C1013.40 hPa87.00 %-13.50 °C 
16:30:00-11.20 °C1013.30 hPa87.00 %-13.10 °C 
16:15:00-10.50 °C1013.20 hPa87.00 %-12.50 °C 
16:00:00-10.10 °C1013.30 hPa87.00 %-12.10 °C 
15:45:00-9.50 °C1013.30 hPa87.00 %-11.50 °C 
15:30:00-8.60 °C1013.30 hPa87.00 %-10.60 °C 
15:15:00-7.60 °C1013.50 hPa87.00 %-9.60 °C 
15:00:00-6.70 °C1013.80 hPa87.00 %-8.70 °C 
14:45:00-5.80 °C1013.90 hPa88.00 %-7.70 °C 
14:30:00-4.90 °C1013.70 hPa89.00 %-6.60 °C 
14:15:00-4.50 °C1013.80 hPa89.00 %-6.20 °C 
14:00:00-4.20 °C1013.80 hPa89.00 %-5.90 °C 
13:45:00-3.50 °C1014.00 hPa89.00 %-5.20 °C 
13:30:00-2.80 °C1014.10 hPa90.00 %-4.40 °C 
13:15:00-2.10 °C1014.40 hPa90.00 %-3.70 °C 
13:00:00-2.30 °C1014.60 hPa91.00 %-3.70 °C 
12:45:00-2.80 °C1014.70 hPa92.00 %-4.00 °C 
12:30:00-3.20 °C1014.80 hPa92.00 %-4.40 °C 
12:15:00-3.80 °C1014.90 hPa92.00 %-5.00 °C 
12:00:00-4.50 °C1015.10 hPa92.00 %-5.70 °C 
11:45:00-5.30 °C1015.00 hPa92.00 %-6.50 °C 
11:30:00-5.10 °C1015.10 hPa92.00 %-6.30 °C 
11:15:00-4.70 °C1015.30 hPa92.00 %-5.90 °C 
11:00:00-4.30 °C1015.30 hPa93.00 %-5.40 °C 
10:45:00-4.90 °C1015.60 hPa94.00 %-5.80 °C 
10:30:00-5.90 °C1015.80 hPa93.00 %-7.00 °C 
10:15:00-6.90 °C1015.80 hPa93.00 %-8.00 °C 
10:00:00-7.40 °C1015.90 hPa93.00 %-8.50 °C 
09:45:00-7.90 °C1016.00 hPa93.00 %-8.90 °C 
09:30:00-8.70 °C1016.30 hPa92.00 %-9.90 °C 
09:15:00-9.10 °C1016.50 hPa92.00 %-10.30 °C 
09:00:00-9.20 °C1016.20 hPa92.00 %-10.40 °C 
08:45:00-9.50 °C1016.20 hPa92.00 %-10.70 °C 
08:30:00-9.70 °C1016.20 hPa92.00 %-10.90 °C 
08:15:00-9.80 °C1016.10 hPa92.00 %-11.00 °C 
08:00:00-10.00 °C1016.00 hPa91.00 %-11.30 °C 
07:45:00-9.80 °C1016.00 hPa92.00 %-11.00 °C 
07:30:00-9.20 °C1016.00 hPa92.00 %-10.40 °C 
07:15:00-8.90 °C1015.80 hPa92.00 %-10.10 °C 
07:00:00-8.70 °C1015.90 hPa92.00 %-9.90 °C 
06:45:00-8.70 °C1016.00 hPa92.00 %-9.90 °C 
06:30:00-8.70 °C1016.10 hPa92.00 %-9.90 °C 
06:15:00-8.70 °C1016.10 hPa92.00 %-9.90 °C 
06:00:00-8.80 °C1016.10 hPa92.00 %-10.00 °C 
05:45:00-9.20 °C1016.20 hPa92.00 %-10.40 °C 
05:30:00-9.60 °C1016.30 hPa92.00 %-10.80 °C 
05:15:00-9.80 °C1016.20 hPa92.00 %-11.00 °C 
05:00:00-9.90 °C1016.40 hPa91.00 %-11.20 °C 
04:45:00-10.10 °C1016.30 hPa91.00 %-11.40 °C 
04:30:00-10.20 °C1016.50 hPa91.00 %-11.50 °C 
04:15:00-9.80 °C1016.40 hPa92.00 %-11.00 °C 
04:00:00-8.90 °C1016.30 hPa92.00 %-10.10 °C 
03:45:00-7.90 °C1016.70 hPa92.00 %-9.10 °C 
03:30:00-7.10 °C1016.70 hPa92.00 %-8.30 °C 
03:15:00-6.90 °C1016.80 hPa92.00 %-8.10 °C 
03:00:00-6.70 °C1016.80 hPa92.00 %-7.90 °C 
02:45:00-6.40 °C1016.80 hPa92.00 %-7.60 °C 
02:30:00-6.20 °C1016.90 hPa93.00 %-7.30 °C 
02:15:00-6.10 °C1017.00 hPa93.00 %-7.20 °C 
02:00:00-5.90 °C1016.90 hPa93.00 %-7.00 °C 
01:45:00-5.90 °C1016.90 hPa93.00 %-7.00 °C 
01:30:00-5.90 °C1016.90 hPa93.00 %-7.00 °C 
01:15:00-5.90 °C1016.70 hPa93.00 %-7.00 °C 
01:00:00-5.70 °C1016.80 hPa93.00 %-6.80 °C 
00:45:00-5.60 °C1016.90 hPa93.00 %-6.70 °C 
00:30:00-5.50 °C1016.90 hPa93.00 %-6.60 °C 
00:15:00-5.40 °C1017.00 hPa93.00 %-6.50 °C 
00:00:00-5.20 °C1017.00 hPa93.00 %-6.30 °C 

Permanenter Link zu dieser Seite: Wetter im Erzgebirge am 18.01.2016
Performance-Info: Die Erstellung der Seite / Statistik(en) / Tabelle(n) erforderte 5 Datenbankserver-Abfrage(n) und dauerte 72 Millisekunden. (Dieser Messwert ist von der Gesamt-Auslastung des Servers abhängig.)
Erzgebirge - Wetter | Erzgebirge - Wetter (Mobilgeräte) | Komplette Klimadatenbank